Météo par heure à A dos Cunhados

Ce jour, 14 Avril, Mercredi

Heure Température Précipitation Vent Pression Humidité
00:00 +15°C° 0 mm 1 m/s 754 mmHg 90%
01:00 +15°C° 0 mm 1 m/s 753 mmHg 90%
02:00 +14°C° 0 mm 1 m/s 753 mmHg 91%
03:00 +14°C° 0 mm 2 m/s 753 mmHg 91%
04:00 +14°C° 0 mm 2 m/s 753 mmHg 90%
05:00 +14°C° 0 mm 2 m/s 753 mmHg 90%
06:00 +15°C° 0 mm 2 m/s 752 mmHg 85%
07:00 +17°C° 0 mm 2 m/s 752 mmHg 79%
08:00 +18°C° 0 mm 3 m/s 752 mmHg 73%
09:00 +19°C° 0.1 mm 2 m/s 752 mmHg 68%
10:00 +20°C° 0.1 mm 2 m/s 752 mmHg 63%
11:00 +19°C° 0 mm 2 m/s 752 mmHg 68%
12:00 +20°C° 0.1 mm 2 m/s 751 mmHg 65%
13:00 +21°C° 0.1 mm 2 m/s 751 mmHg 62%
14:00 +21°C° 0.1 mm 2 m/s 751 mmHg 59%
15:00 +20°C° 0.6 mm 2 m/s 751 mmHg 68%
16:00 +19°C° 0.6 mm 2 m/s 750 mmHg 77%
17:00 +17°C° 0.6 mm 3 m/s 750 mmHg 86%
18:00 +16°C° 1.7 mm 2 m/s 750 mmHg 89%
19:00 +16°C° 1.7 mm 2 m/s 751 mmHg 92%
20:00 +15°C° 1.7 mm 2 m/s 751 mmHg 95%
21:00 +15°C° 1.1 mm 2 m/s 751 mmHg 95%
22:00 +15°C° 1.1 mm 1 m/s 751 mmHg 95%
23:00 +15°C° 1.1 mm 1 m/s 750 mmHg 96%

Demain, 15 Avril, Jeudi

Heure Température Précipitation Vent Pression Humidité
00:00 +15°C° 1.1 mm 1 m/s 750 mmHg 96%
01:00 +15°C° 1.1 mm 1 m/s 750 mmHg 97%
02:00 +15°C° 1.1 mm 1 m/s 750 mmHg 97%
03:00 +15°C° 1 mm 1 m/s 750 mmHg 98%
04:00 +15°C° 1 mm 1 m/s 750 mmHg 98%
05:00 +15°C° 1 mm 1 m/s 750 mmHg 98%
06:00 +15°C° 0 mm 1 m/s 751 mmHg 96%
07:00 +16°C° 0 mm 2 m/s 751 mmHg 95%
08:00 +16°C° 0 mm 2 m/s 751 mmHg 93%
09:00 +17°C° 0.1 mm 2 m/s 751 mmHg 86%
10:00 +19°C° 0.1 mm 2 m/s 752 mmHg 78%
11:00 +20°C° 0.1 mm 2 m/s 752 mmHg 70%
12:00 +21°C° 0.2 mm 2 m/s 751 mmHg 67%
13:00 +21°C° 0.2 mm 2 m/s 751 mmHg 64%
14:00 +22°C° 0.2 mm 3 m/s 751 mmHg 61%
15:00 +21°C° 0.3 mm 3 m/s 751 mmHg 68%
16:00 +19°C° 0.3 mm 3 m/s 751 mmHg 76%
17:00 +18°C° 0.3 mm 3 m/s 752 mmHg 83%
18:00 +17°C° 0 mm 3 m/s 752 mmHg 87%
19:00 +16°C° 0 mm 3 m/s 753 mmHg 91%
20:00 +14°C° 0 mm 3 m/s 753 mmHg 95%
21:00 +14°C° 0 mm 2 m/s 753 mmHg 94%
22:00 +14°C° 0 mm 2 m/s 753 mmHg 94%
23:00 +14°C° 0 mm 2 m/s 753 mmHg 94%

Après-demain, 16 Avril, Vendredi

Heure Température Précipitation Vent Pression Humidité
00:00 +14°C° 0 mm 2 m/s 753 mmHg 93%
01:00 +13°C° 0 mm 2 m/s 752 mmHg 92%
02:00 +13°C° 0 mm 2 m/s 752 mmHg 91%
03:00 +13°C° 0 mm 2 m/s 753 mmHg 90%
04:00 +12°C° 0 mm 2 m/s 753 mmHg 90%
05:00 +12°C° 0 mm 2 m/s 753 mmHg 89%
06:00 +14°C° 0 mm 2 m/s 753 mmHg 83%
07:00 +16°C° 0 mm 2 m/s 753 mmHg 77%
08:00 +19°C° 0 mm 1 m/s 754 mmHg 71%
09:00 +19°C° 0 mm 2 m/s 754 mmHg 65%
10:00 +20°C° 0 mm 2 m/s 754 mmHg 59%
11:00 +23°C° 0 mm 2 m/s 754 mmHg 53%
12:00 +21°C° 0 mm 3 m/s 753 mmHg 54%
13:00 +21°C° 0 mm 4 m/s 753 mmHg 56%
14:00 +21°C° 0 mm 4 m/s 753 mmHg 57%
15:00 +20°C° 0 mm 4 m/s 753 mmHg 63%
16:00 +18°C° 0 mm 4 m/s 753 mmHg 68%
17:00 +17°C° 0 mm 4 m/s 754 mmHg 73%
18:00 +15°C° 0 mm 4 m/s 754 mmHg 79%
19:00 +13°C° 0 mm 3 m/s 754 mmHg 84%
20:00 +12°C° 0 mm 3 m/s 754 mmHg 90%
21:00 +11°C° 0 mm 3 m/s 754 mmHg 87%
22:00 +11°C° 0 mm 3 m/s 754 mmHg 83%
23:00 +11°C° 0 mm 3 m/s 754 mmHg 80%

17 Avril, Samedi

Heure Température Précipitation Vent Pression Humidité
00:00 +12°C° 0 mm 2 m/s 754 mmHg 76%
01:00 +12°C° 0 mm 2 m/s 754 mmHg 71%
02:00 +12°C° 0 mm 2 m/s 754 mmHg 67%
03:00 +12°C° 0 mm 2 m/s 754 mmHg 64%
04:00 +10°C° 0 mm 2 m/s 755 mmHg 62%
05:00 +10°C° 0 mm 2 m/s 755 mmHg 59%
06:00 +11°C° 0 mm 3 m/s 755 mmHg 54%
07:00 +13°C° 0 mm 3 m/s 756 mmHg 49%
08:00 +15°C° 0 mm 4 m/s 756 mmHg 44%
09:00 +17°C° 0 mm 3 m/s 756 mmHg 41%
10:00 +19°C° 0 mm 3 m/s 756 mmHg 39%
11:00 +20°C° 0 mm 2 m/s 756 mmHg 36%
12:00 +21°C° 0 mm 2 m/s 756 mmHg 36%
13:00 +21°C° 0 mm 2 m/s 756 mmHg 36%
14:00 +22°C° 0 mm 3 m/s 755 mmHg 36%
15:00 +21°C° 0 mm 3 m/s 756 mmHg 42%
16:00 +19°C° 0 mm 3 m/s 756 mmHg 48%
17:00 +18°C° 0 mm 3 m/s 756 mmHg 54%
18:00 +16°C° 0 mm 3 m/s 756 mmHg 58%
19:00 +14°C° 0 mm 2 m/s 757 mmHg 62%
20:00 +12°C° 0 mm 2 m/s 757 mmHg 65%
21:00 +12°C° 0 mm 2 m/s 757 mmHg 64%
22:00 +12°C° 0 mm 1 m/s 757 mmHg 62%
23:00 +12°C° 0 mm 1 m/s 757 mmHg 60%

18 Avril, Dimanche

Heure Température Précipitation Vent Pression Humidité
00:00 +12°C° 0 mm 1 m/s 757 mmHg 60%
01:00 +12°C° 0 mm 1 m/s 757 mmHg 60%
02:00 +11°C° 0 mm 0 m/s 757 mmHg 59%
03:00 +12°C° 0 mm 1 m/s 757 mmHg 59%
04:00 +12°C° 0 mm 1 m/s 757 mmHg 59%
05:00 +12°C° 0 mm 1 m/s 757 mmHg 59%
06:00 +14°C° 0 mm 1 m/s 757 mmHg 57%
07:00 +15°C° 0 mm 1 m/s 757 mmHg 55%
08:00 +18°C° 0 mm 1 m/s 758 mmHg 53%
09:00 +19°C° 0 mm 1 m/s 758 mmHg 51%
10:00 +20°C° 0 mm 1 m/s 758 mmHg 48%
11:00 +20°C° 0 mm 2 m/s 758 mmHg 46%
12:00 +20°C° 0 mm 2 m/s 757 mmHg 45%
13:00 +21°C° 0 mm 3 m/s 757 mmHg 45%
14:00 +21°C° 0 mm 3 m/s 757 mmHg 45%
15:00 +20°C° 0 mm 3 m/s 757 mmHg 51%
16:00 +19°C° 0 mm 3 m/s 757 mmHg 57%
17:00 +17°C° 0 mm 3 m/s 757 mmHg 64%
18:00 +16°C° 0 mm 3 m/s 757 mmHg 70%
19:00 +13°C° 0 mm 3 m/s 758 mmHg 77%
20:00 +12°C° 0 mm 3 m/s 758 mmHg 83%
21:00 +13°C° 0 mm 2 m/s 758 mmHg 84%
22:00 +13°C° 0 mm 2 m/s 757 mmHg 84%
23:00 +13°C° 0 mm 2 m/s 757 mmHg 85%

19 Avril, Lundi

Heure Température Précipitation Vent Pression Humidité
00:00 +12°C° 0 mm 2 m/s 757 mmHg 86%
01:00 +12°C° 0 mm 2 m/s 757 mmHg 88%
02:00 +12°C° 0 mm 2 m/s 757 mmHg 89%
03:00 +12°C° 0 mm 2 m/s 757 mmHg 88%
04:00 +12°C° 0 mm 2 m/s 756 mmHg 87%
05:00 +12°C° 0 mm 2 m/s 756 mmHg 86%
06:00 +13°C° 0 mm 3 m/s 756 mmHg 79%
07:00 +14°C° 0 mm 3 m/s 757 mmHg 73%
08:00 +17°C° 0 mm 3 m/s 757 mmHg 66%
09:00 +18°C° 0 mm 3 m/s 757 mmHg 64%
10:00 +19°C° 0 mm 3 m/s 757 mmHg 62%
11:00 +19°C° 0 mm 4 m/s 757 mmHg 60%
12:00 +19°C° 0 mm 4 m/s 756 mmHg 61%
13:00 +19°C° 0 mm 5 m/s 756 mmHg 63%
14:00 +19°C° 0 mm 6 m/s 755 mmHg 64%
15:00 +17°C° 0 mm 6 m/s 755 mmHg 69%
16:00 +17°C° 0 mm 6 m/s 755 mmHg 73%
17:00 +16°C° 0 mm 6 m/s 755 mmHg 77%
18:00 +15°C° 0 mm 5 m/s 756 mmHg 83%
19:00 +14°C° 0 mm 5 m/s 756 mmHg 88%
20:00 +13°C° 0 mm 5 m/s 756 mmHg 93%
21:00 +12°C° 0 mm 5 m/s 756 mmHg 94%
22:00 +12°C° 0 mm 5 m/s 756 mmHg 95%
23:00 +12°C° 0 mm 5 m/s 755 mmHg 96%
Voir plus

Nous avons besoin de votre consentement

Meteoprog et ses fournisseurs de services peuvent stocker et accéder à des données personnelles telles que des cookies, des identifiants d'appareils ou d'autres technologies similaires sur votre appareil et traiter ces données pour personnaliser le contenu et les publicités, ainsi que pour fournir des fonctionnalités de médias sociaux et analyser le trafic.

  • Stocker et/ou accéder à des informations sur votre appareil

    Des cookies, des identifiants d'appareils ou d'autres informations peuvent être stockés ou accessibles sur votre appareil aux fins indiquées ci-dessus.

  • Annonces et contenus personnalisés, mesure des annonces et des contenus, connaissance de l'audience et développement de produits

    Les annonces et le contenu peuvent être personnalisés en fonction d'un profil. D'autres données peuvent être ajoutées pour mieux personnaliser les annonces et le contenu. Les performances des publicités et du contenu peuvent être mesurées. Il est possible d'obtenir des informations sur le public qui a vu les publicités et le contenu. Ces données peuvent être utilisées pour développer ou améliorer l'expérience de l'utilisateur, les systèmes et les logiciels.

En cliquant sur "J'accepte", vous autorisez l'utilisation de cookies, des identifiants d'appareils, des balises web ou d'autres technologies similaires. Vos paramètres peuvent être modifiés dans le navigateur de votre appareil.

Dans certains cas, des intérêts légitimes peuvent être invoqués plutôt qu'un consentement. Vous pouvez en savoir plus à ce sujet dans notre Politique de confidentialité et de cookies.